Weather History for Chesapeake, VA

Change the Weather History Date:

Monday, December 24, 2012

  Actual Average (KORF) Record (KORF)
Temperature  
Mean Temperature 49 °F 42 °F  
Max Temperature 57 °F 50 °F 75 °F (1891)
Min Temperature 41 °F 34 °F 10 °F (1983)
Degree Days  
Heating Degree Days 16 23  
Month to date heating degree days 485  
Since 1 July heating degree days 1015  
Cooling Degree Days 0 0  
Month to date cooling degree days 0  
Year to date cooling degree days 1628  
Moisture  
Dew Point 37 °F    
Average Humidity 62    
Maximum Humidity 82    
Minimum Humidity 47    
Precipitation  
Precipitation 0.00 in 0.11 in 1.57 in (1986)
Month to date precipitation 2.56  
Year to date precipitation 45.83  
Snow  
Snow 0.00 in 0.00 in 3.30 in (1939)
Month to date snowfall 0.7  
Since 1 July snowfall 0.7  
Snow Depth -    
Sea Level Pressure  
Sea Level Pressure 29.99 in    
Wind  
Wind Speed 3 mph (South)    
Max Wind Speed 8 mph    
Max Gust Speed -    
Visibility 10 miles    
Events Rain    
T = Trace of Precipitation, MM = Missing Value Source: NWS Daily Summary

Daily Weather History Graph

Daily Weather History Graph

Search for Another Location

Airport:

Trip Planner

Search our weather history database for the weather conditions in past years. The results will help you decide how hot, cold, wet, or windy it might be!

Date:

Astronomy

Dec. 24, 2012 Rise Set
Actual Time 7:15 AM EST 4:54 PM EST
Civil Twilight 6:46 AM EST 5:23 PM EST
Nautical Twilight 6:14 AM EST 5:56 PM EST
Astronomical Twilight 5:42 AM EST 6:27 PM EST
Moon 2:19 PM EST (12/24) 3:54 AM EST (12/24)
Length of Visible Light 10h 37m
Length of Day
9h 39m
Waxing Gibbous, 88% of the Moon is Illuminated
Dec 24
Waxing Gibbous
Dec 28
Full
Jan 4
Last Quarter
Jan 11
New
Jan 18
First Quarter

Hourly Weather History & Observations

Time (EST) Temp. Windchill Dew Point Humidity Pressure Visibility Wind Dir Wind Speed Gust Speed Precip Events Conditions
12:15 AM 44.6 °F 42.2 °F 30.2 °F 57% 30.02 in 10.0 mi SW 4.6 mph - N/A   Scattered Clouds
12:35 AM 46.4 °F 44.3 °F 28.4 °F 50% 30.02 in 10.0 mi SW 4.6 mph - N/A   Mostly Cloudy
12:55 AM 44.6 °F 42.2 °F 30.2 °F 57% 30.02 in 10.0 mi SW 4.6 mph - N/A   Scattered Clouds
1:15 AM 46.4 °F 44.3 °F 28.4 °F 50% 30.02 in 10.0 mi SSW 4.6 mph - N/A   Scattered Clouds
1:35 AM 44.6 °F 43.1 °F 28.4 °F 53% 30.02 in 10.0 mi SSW 3.5 mph - N/A   Scattered Clouds
1:55 AM 42.8 °F 41.1 °F 28.4 °F 57% 30.02 in 10.0 mi SSW 3.5 mph - N/A   Clear
2:15 AM 42.8 °F - 28.4 °F 57% 30.02 in 10.0 mi Calm Calm - N/A   Clear
2:35 AM 41.0 °F - 30.2 °F 65% 30.03 in 10.0 mi Calm Calm - N/A   Scattered Clouds
2:55 AM 42.8 °F - 28.4 °F 57% 30.03 in 10.0 mi Calm Calm - N/A   Mostly Cloudy
3:15 AM 41.0 °F - 30.2 °F 65% 30.03 in 10.0 mi Calm Calm - N/A   Scattered Clouds
3:35 AM 41.0 °F - 30.2 °F 65% 30.02 in 10.0 mi Calm Calm - N/A   Scattered Clouds
3:55 AM 42.8 °F - 30.2 °F 61% 30.02 in 10.0 mi Calm Calm - N/A   Overcast
4:15 AM 44.6 °F 43.1 °F 30.2 °F 57% 30.01 in 10.0 mi South 3.5 mph - N/A   Mostly Cloudy
4:35 AM 41.0 °F - 30.2 °F 65% 30.02 in 10.0 mi Calm Calm - N/A   Scattered Clouds
4:55 AM 42.8 °F - 32.0 °F 66% 30.03 in 10.0 mi Calm Calm - N/A   Mostly Cloudy
5:15 AM 42.8 °F - 33.8 °F 70% 30.03 in 10.0 mi Calm Calm - N/A   Overcast
5:35 AM 42.8 °F - 35.6 °F 76% 30.03 in 10.0 mi Calm Calm - N/A   Overcast
5:55 AM 42.8 °F - 35.6 °F 76% 30.04 in 10.0 mi Calm Calm - N/A   Overcast
6:15 AM 42.8 °F - 35.6 °F 76% 30.04 in 10.0 mi Calm Calm - N/A   Overcast
6:35 AM 42.8 °F - 35.6 °F 76% 30.05 in 10.0 mi Calm Calm - N/A   Overcast
7:15 AM 42.8 °F - 37.4 °F 81% 30.05 in 10.0 mi Calm Calm - N/A   Overcast
7:35 AM 42.8 °F - 37.4 °F 81% 30.06 in 10.0 mi Calm Calm - N/A   Overcast
7:55 AM 42.8 °F - 37.4 °F 81% 30.06 in 10.0 mi Calm Calm - N/A   Overcast
8:15 AM 44.6 °F - 33.8 °F 66% 30.05 in 10.0 mi Calm Calm - N/A   Overcast
8:35 AM 46.4 °F - 33.8 °F 62% 30.06 in 10.0 mi Calm Calm - N/A   Overcast
8:55 AM 46.4 °F - 35.6 °F 66% 30.07 in 10.0 mi Calm Calm - N/A   Overcast
9:15 AM 46.4 °F 44.3 °F 35.6 °F 66% 30.08 in 10.0 mi South 4.6 mph - N/A   Overcast
9:35 AM 48.2 °F - 35.6 °F 62% 30.08 in 10.0 mi Calm Calm - N/A   Mostly Cloudy
9:55 AM 48.2 °F - 35.6 °F 62% 30.07 in 10.0 mi SE 3.5 mph - N/A   Scattered Clouds
10:15 AM 50.0 °F - 35.6 °F 58% 30.07 in 10.0 mi SSW 4.6 mph - N/A   Scattered Clouds
10:35 AM 51.8 °F - 33.8 °F 50% 30.06 in 10.0 mi Calm Calm - N/A   Scattered Clouds
10:55 AM 53.6 °F - 33.8 °F 47% 30.05 in 10.0 mi South 8.1 mph - N/A   Mostly Cloudy
11:35 AM 53.6 °F - 35.6 °F 51% 30.04 in 10.0 mi SSW 3.5 mph - N/A   Clear
11:55 AM 53.6 °F - 35.6 °F 51% 30.02 in 10.0 mi Calm Calm - N/A   Mostly Cloudy
12:15 PM 53.6 °F - 35.6 °F 51% 30.01 in 10.0 mi Calm Calm - N/A   Mostly Cloudy
12:35 PM 55.4 °F - 35.6 °F 47% 30.00 in 10.0 mi SSE 5.8 mph - N/A   Mostly Cloudy
12:55 PM 55.4 °F - 37.4 °F 51% 29.99 in 10.0 mi South 6.9 mph - N/A   Mostly Cloudy
1:15 PM 57.2 °F - 37.4 °F 48% 29.98 in 10.0 mi South 3.5 mph - N/A   Scattered Clouds
1:35 PM 57.2 °F - 37.4 °F 48% 29.98 in 10.0 mi SSE 6.9 mph - N/A   Scattered Clouds
1:55 PM 57.2 °F - 37.4 °F 48% 29.96 in 10.0 mi South 6.9 mph - N/A   Scattered Clouds
2:15 PM 57.2 °F - 37.4 °F 48% 29.95 in 10.0 mi SSE 4.6 mph - N/A   Mostly Cloudy
2:35 PM 57.2 °F - 37.4 °F 48% 29.95 in 10.0 mi SSE 8.1 mph - N/A   Scattered Clouds
2:55 PM 57.2 °F - 37.4 °F 48% 29.95 in 10.0 mi SSE 8.1 mph - N/A   Scattered Clouds
3:15 PM 55.4 °F - 39.2 °F 54% 29.95 in 10.0 mi South 5.8 mph - N/A   Clear
3:35 PM 55.4 °F - 39.2 °F 54% 29.97 in 10.0 mi South 5.8 mph - N/A   Clear
3:55 PM 55.4 °F - 39.2 °F 54% 29.95 in 10.0 mi Calm Calm - N/A   Clear
4:15 PM 55.4 °F - 41.0 °F 58% 29.95 in 10.0 mi Calm Calm - N/A   Mostly Cloudy
4:35 PM 53.6 °F - 41.0 °F 62% 29.95 in 10.0 mi South 4.6 mph - N/A   Mostly Cloudy
4:55 PM 53.6 °F - 41.0 °F 62% 29.95 in 10.0 mi South 4.6 mph - N/A   Scattered Clouds
5:15 PM 53.6 °F - 41.0 °F 62% 29.93 in 10.0 mi East 4.6 mph - N/A   Mostly Cloudy
5:35 PM 53.6 °F - 41.0 °F 62% 29.94 in 10.0 mi SSE 3.5 mph - N/A   Overcast
5:55 PM 53.6 °F - 42.8 °F 67% 29.92 in 10.0 mi SE 4.6 mph - N/A   Overcast
6:15 PM 53.6 °F - 41.0 °F 62% 29.94 in 10.0 mi South 5.8 mph - N/A   Overcast
6:35 PM 53.6 °F - 41.0 °F 62% 29.93 in 10.0 mi South 3.5 mph - N/A   Overcast
6:55 PM 51.8 °F - 41.0 °F 67% 29.93 in 10.0 mi Calm Calm - N/A   Overcast
7:15 PM 51.8 °F - 42.8 °F 71% 29.95 in 10.0 mi SW 3.5 mph - N/A   Overcast
7:35 PM 50.0 °F - 42.8 °F 76% 29.95 in 10.0 mi Calm Calm - N/A Rain Light Rain
7:55 PM 50.0 °F - 44.6 °F 82% 29.94 in 10.0 mi SSE 5.8 mph - N/A Rain Light Rain
8:15 PM 51.8 °F - 42.8 °F 71% 29.93 in 10.0 mi SSE 4.6 mph - N/A   Overcast
8:35 PM 50.0 °F - 42.8 °F 76% 29.93 in 10.0 mi Calm Calm - N/A   Overcast
8:55 PM 51.8 °F - 42.8 °F 71% 29.93 in 10.0 mi Calm Calm - N/A   Overcast
9:15 PM 51.8 °F - 42.8 °F 71% 29.92 in 10.0 mi SW 4.6 mph - N/A   Overcast
9:35 PM 51.8 °F - 42.8 °F 71% 29.92 in 10.0 mi South 4.6 mph - N/A   Overcast
9:55 PM 51.8 °F - 42.8 °F 71% 29.93 in 10.0 mi South 8.1 mph - N/A   Overcast
10:15 PM 53.6 °F - 42.8 °F 67% 29.93 in 10.0 mi SSW 8.1 mph - N/A   Overcast
10:35 PM 53.6 °F - 41.0 °F 62% 29.93 in 10.0 mi SSW 6.9 mph - N/A   Overcast
10:55 PM 53.6 °F - 41.0 °F 62% 29.93 in 10.0 mi SW 6.9 mph - N/A   Overcast
11:15 PM 53.6 °F - 41.0 °F 62% 29.93 in 10.0 mi SW 6.9 mph - N/A   Overcast
11:35 PM 51.8 °F - 41.0 °F 67% 29.93 in 10.0 mi WSW 6.9 mph - N/A   Mostly Cloudy
11:55 PM 51.8 °F - 41.0 °F 67% 29.92 in 10.0 mi SW 4.6 mph - N/A   Overcast